• In Österreich
  • Länderverzeichnis
  • Für 7 Tage
  • Wassertemperatur
  • Satellitenkarten
  • Wetterkarte
  • News
  • Widgets
  • user-avatar
    Anmelden

    Stündliche Wetter Chyzhivka

    Heute, 16 August, Donnerstag

    Zeit Temperatur Niederschläge Wind Luftdruck Luftfeuchtigkeit
    00:00 +23°C° 0 mm 1 m/S 740 mmHg 53%
    01:00 +22°C° 0 mm 1 m/S 740 mmHg 58%
    02:00 +20°C° 0 mm 2 m/S 740 mmHg 62%
    03:00 +20°C° 0 mm 2 m/S 740 mmHg 67%
    04:00 +19°C° 0 mm 2 m/S 740 mmHg 72%
    05:00 +19°C° 0 mm 2 m/S 741 mmHg 77%
    06:00 +20°C° 0 mm 3 m/S 741 mmHg 75%
    07:00 +22°C° 0 mm 3 m/S 741 mmHg 73%
    08:00 +24°C° 0 mm 3 m/S 741 mmHg 70%
    09:00 +26°C° 0 mm 3 m/S 741 mmHg 64%
    10:00 +28°C° 0 mm 4 m/S 742 mmHg 59%
    11:00 +29°C° 0 mm 4 m/S 742 mmHg 53%
    12:00 +30°C° 0 mm 4 m/S 742 mmHg 51%
    13:00 +30°C° 0 mm 4 m/S 742 mmHg 49%
    14:00 +32°C° 0 mm 4 m/S 742 mmHg 47%
    15:00 +30°C° 0 mm 4 m/S 741 mmHg 49%
    16:00 +30°C° 0 mm 3 m/S 741 mmHg 51%
    17:00 +29°C° 0 mm 3 m/S 741 mmHg 54%
    18:00 +28°C° 0 mm 3 m/S 741 mmHg 58%
    19:00 +26°C° 0 mm 3 m/S 741 mmHg 63%
    20:00 +25°C° 0 mm 3 m/S 741 mmHg 68%
    21:00 +24°C° 0,2 mm 3 m/S 741 mmHg 71%
    22:00 +22°C° 0,2 mm 3 m/S 741 mmHg 73%
    23:00 +21°C° 0,2 mm 3 m/S 742 mmHg 76%

    Morgen, 17 August, Freitag

    Zeit Temperatur Niederschläge Wind Luftdruck Luftfeuchtigkeit
    00:00 +21°C° 0,1 mm 3 m/S 742 mmHg 77%
    01:00 +20°C° 0,1 mm 3 m/S 741 mmHg 77%
    02:00 +20°C° 0,1 mm 3 m/S 741 mmHg 78%
    03:00 +20°C° 0,4 mm 3 m/S 741 mmHg 79%
    04:00 +20°C° 0,4 mm 3 m/S 741 mmHg 80%
    05:00 +19°C° 0,4 mm 3 m/S 741 mmHg 81%
    06:00 +20°C° 0,4 mm 3 m/S 742 mmHg 79%
    07:00 +21°C° 0,4 mm 3 m/S 742 mmHg 77%
    08:00 +22°C° 0,4 mm 4 m/S 742 mmHg 75%
    09:00 +24°C° 0 mm 3 m/S 742 mmHg 68%
    10:00 +26°C° 0 mm 3 m/S 742 mmHg 62%
    11:00 +27°C° 0 mm 3 m/S 742 mmHg 56%
    12:00 +28°C° 0 mm 2 m/S 742 mmHg 53%
    13:00 +29°C° 0 mm 2 m/S 742 mmHg 51%
    14:00 +29°C° 0 mm 2 m/S 742 mmHg 48%
    15:00 +29°C° 0 mm 2 m/S 741 mmHg 51%
    16:00 +29°C° 0 mm 2 m/S 741 mmHg 53%
    17:00 +28°C° 0 mm 2 m/S 741 mmHg 56%
    18:00 +27°C° 0 mm 2 m/S 741 mmHg 59%
    19:00 +25°C° 0 mm 2 m/S 741 mmHg 61%
    20:00 +24°C° 0 mm 2 m/S 741 mmHg 64%
    21:00 +24°C° 0 mm 2 m/S 741 mmHg 65%
    22:00 +23°C° 0 mm 2 m/S 741 mmHg 65%
    23:00 +21°C° 0 mm 2 m/S 741 mmHg 66%

    übermorgen, 18 August, Samstag

    Zeit Temperatur Niederschläge Wind Luftdruck Luftfeuchtigkeit
    00:00 +21°C° 0,1 mm 2 m/S 741 mmHg 68%
    01:00 +21°C° 0,1 mm 1 m/S 741 mmHg 70%
    02:00 +21°C° 0,1 mm 1 m/S 741 mmHg 72%
    03:00 +21°C° 0,1 mm 1 m/S 741 mmHg 73%
    04:00 +20°C° 0,1 mm 1 m/S 741 mmHg 74%
    05:00 +20°C° 0,1 mm 1 m/S 741 mmHg 76%
    06:00 +22°C° 0 mm 1 m/S 741 mmHg 72%
    07:00 +23°C° 0 mm 2 m/S 742 mmHg 67%
    08:00 +25°C° 0 mm 2 m/S 742 mmHg 63%
    09:00 +27°C° 0 mm 2 m/S 742 mmHg 57%
    10:00 +28°C° 0 mm 2 m/S 742 mmHg 52%
    11:00 +30°C° 0 mm 2 m/S 742 mmHg 46%
    12:00 +30°C° 0 mm 1 m/S 742 mmHg 43%
    13:00 +31°C° 0 mm 1 m/S 742 mmHg 41%
    14:00 +32°C° 0 mm 1 m/S 742 mmHg 38%
    15:00 +31°C° 0 mm 1 m/S 742 mmHg 40%
    16:00 +31°C° 0 mm 1 m/S 742 mmHg 41%
    17:00 +31°C° 0 mm 1 m/S 742 mmHg 43%
    18:00 +29°C° 0 mm 1 m/S 742 mmHg 46%
    19:00 +27°C° 0 mm 1 m/S 742 mmHg 50%
    20:00 +26°C° 0 mm 1 m/S 742 mmHg 53%
    21:00 +25°C° 0,1 mm 1 m/S 742 mmHg 56%
    22:00 +24°C° 0,1 mm 1 m/S 742 mmHg 59%
    23:00 +24°C° 0,1 mm 1 m/S 742 mmHg 61%

    19 August, Sonntag

    Zeit Temperatur Niederschläge Wind Luftdruck Luftfeuchtigkeit
    00:00 +23°C° 0,6 mm 1 m/S 742 mmHg 66%
    01:00 +22°C° 0,6 mm 1 m/S 742 mmHg 70%
    02:00 +22°C° 0,6 mm 1 m/S 742 mmHg 75%
    03:00 +21°C° 0,1 mm 1 m/S 742 mmHg 77%
    04:00 +21°C° 0,1 mm 1 m/S 742 mmHg 79%
    05:00 +20°C° 0,1 mm 1 m/S 742 mmHg 81%
    06:00 +22°C° 0 mm 1 m/S 742 mmHg 75%
    07:00 +24°C° 0 mm 1 m/S 742 mmHg 70%
    08:00 +25°C° 0 mm 1 m/S 743 mmHg 65%
    09:00 +27°C° 0,1 mm 1 m/S 743 mmHg 59%
    10:00 +28°C° 0,1 mm 1 m/S 743 mmHg 54%
    11:00 +30°C° 0,1 mm 1 m/S 743 mmHg 48%
    12:00 +30°C° 0 mm 1 m/S 742 mmHg 46%
    13:00 +31°C° 0 mm 1 m/S 742 mmHg 44%
    14:00 +31°C° 0 mm 1 m/S 742 mmHg 41%
    15:00 +31°C° 0 mm 1 m/S 742 mmHg 46%
    16:00 +30°C° 0 mm 2 m/S 742 mmHg 50%
    17:00 +29°C° 0 mm 2 m/S 742 mmHg 54%
    18:00 +28°C° 0,1 mm 2 m/S 742 mmHg 58%
    19:00 +26°C° 0,1 mm 2 m/S 742 mmHg 62%
    20:00 +25°C° 0,1 mm 2 m/S 742 mmHg 66%
    21:00 +24°C° 0,5 mm 2 m/S 742 mmHg 70%
    22:00 +23°C° 0,5 mm 2 m/S 742 mmHg 75%
    23:00 +21°C° 0,5 mm 2 m/S 742 mmHg 80%

    20 August, Montag

    Zeit Temperatur Niederschläge Wind Luftdruck Luftfeuchtigkeit
    00:00 +20°C° 0,3 mm 2 m/S 742 mmHg 80%
    01:00 +21°C° 0,3 mm 1 m/S 742 mmHg 81%
    02:00 +21°C° 0,3 mm 1 m/S 742 mmHg 81%
    03:00 +20°C° 0,4 mm 1 m/S 742 mmHg 82%
    04:00 +20°C° 0,4 mm 1 m/S 742 mmHg 83%
    05:00 +19°C° 0,4 mm 2 m/S 742 mmHg 84%
    06:00 +20°C° 0 mm 2 m/S 742 mmHg 80%
    07:00 +23°C° 0 mm 2 m/S 742 mmHg 75%
    08:00 +24°C° 0 mm 2 m/S 743 mmHg 71%
    09:00 +26°C° 0,2 mm 2 m/S 743 mmHg 66%
    10:00 +27°C° 0,2 mm 2 m/S 743 mmHg 60%
    11:00 +28°C° 0,2 mm 2 m/S 743 mmHg 55%
    12:00 +28°C° 0,2 mm 2 m/S 743 mmHg 52%
    13:00 +29°C° 0,2 mm 2 m/S 743 mmHg 50%
    14:00 +29°C° 0,2 mm 1 m/S 742 mmHg 48%
    15:00 +29°C° 0 mm 2 m/S 742 mmHg 49%
    16:00 +29°C° 0 mm 2 m/S 742 mmHg 51%
    17:00 +29°C° 0 mm 2 m/S 742 mmHg 52%
    18:00 +27°C° 0 mm 2 m/S 742 mmHg 56%
    19:00 +26°C° 0 mm 2 m/S 742 mmHg 60%
    20:00 +24°C° 0 mm 2 m/S 742 mmHg 64%
    21:00 +23°C° 0 mm 2 m/S 743 mmHg 66%
    22:00 +23°C° 0 mm 2 m/S 743 mmHg 68%
    23:00 +21°C° 0 mm 2 m/S 743 mmHg 70%

    21 August, Dienstag

    Zeit Temperatur Niederschläge Wind Luftdruck Luftfeuchtigkeit
    00:00 +22°C° 0 mm 1 m/S 743 mmHg 72%
    01:00 +21°C° 0 mm 1 m/S 743 mmHg 74%
    02:00 +21°C° 0 mm 1 m/S 743 mmHg 76%
    03:00 +21°C° 0 mm 1 m/S 743 mmHg 78%
    04:00 +20°C° 0 mm 1 m/S 743 mmHg 79%
    05:00 +20°C° 0 mm 1 m/S 743 mmHg 81%
    06:00 +22°C° 0 mm 1 m/S 743 mmHg 76%
    07:00 +23°C° 0 mm 1 m/S 744 mmHg 72%
    08:00 +25°C° 0 mm 2 m/S 744 mmHg 68%
    09:00 +26°C° 0 mm 1 m/S 744 mmHg 62%
    10:00 +27°C° 0 mm 1 m/S 744 mmHg 57%
    11:00 +29°C° 0 mm 1 m/S 744 mmHg 52%
    12:00 +29°C° 0 mm 1 m/S 744 mmHg 51%
    13:00 +29°C° 0 mm 1 m/S 743 mmHg 50%
    14:00 +29°C° 0 mm 1 m/S 743 mmHg 49%
    15:00 +29°C° 0 mm 1 m/S 743 mmHg 50%
    16:00 +29°C° 0 mm 1 m/S 743 mmHg 51%
    17:00 +29°C° 0 mm 1 m/S 743 mmHg 52%
    18:00 +27°C° 0 mm 1 m/S 743 mmHg 56%
    19:00 +26°C° 0 mm 2 m/S 743 mmHg 59%
    20:00 +24°C° 0 mm 2 m/S 743 mmHg 62%
    21:00 +24°C° 0 mm 2 m/S 743 mmHg 64%
    22:00 +23°C° 0 mm 1 m/S 743 mmHg 65%
    23:00 +22°C° 0 mm 1 m/S 743 mmHg 66%
    Mehr zeigen